Location: Pettit
(39.0209°N, 79.7181°W)
Time: 05:37:03
(UTC+00:00)

ISS - Pass Details

Date: 25 April 2026
Orbit: 414 x 424 km, 51.6° (Epoch: 15 May)

Event Time Altitude Azimuth Distance (km) Brightness Sun altitude
Exits shadow 07:24:34 15° 47° (NE) 1,230 -0.6 -29.9°
Drops below altitude 10° 07:25:14 10° 48° (NE) 1,498 -0.1 -29.8°
Sets 07:27:20 0° 51° (NE) 2,367 1.2 -29.5°
